Weather History for KLOU - March, 2013

Change the Weather History Date:

Wednesday, March 27, 2013

  Actual Average Record
Temperature  
Mean Temperature 37 °F 51 °F  
Max Temperature 46 °F 61 °F 82 °F (2007)
Min Temperature 28 °F 41 °F 16 °F (1955)
Degree Days  
Heating Degree Days 28 15  
Month to date heating degree days 688 507  
Since 1 July heating degree days 3918 3868  
Cooling Degree Days 0 0  
Month to date cooling degree days 0 0  
Year to date cooling degree days 0 0  
Moisture  
Dew Point 22 °F    
Average Humidity 56    
Maximum Humidity 75    
Minimum Humidity 37    
Precipitation  
Precipitation 0.00 in 0.15 in 1.43 in (2005)
Month to date precipitation 4.07 3.54  
Year to date precipitation 10.78 10.10  
Sea Level Pressure  
Sea Level Pressure 30.34 in    
Wind  
Wind Speed 5 mph (WNW)    
Max Wind Speed 14 mph    
Max Gust Speed 17 mph    
Visibility 10 miles    
Events      
T = Trace of Precipitation, MM = Missing Value Source: NWS Daily Summary

Daily Weather History Graph

Daily Weather History Graph

Search for Another Location

Airport or City:

Trip Planner

Search our weather history database for the weather conditions in past years. The results will help you decide how hot, cold, wet, or windy it might be!

Date:

Astronomy

Mar. 27, 2013 Rise Set
Actual Time 7:34 AM EDT 8:01 PM EDT
Civil Twilight 7:08 AM EDT 8:27 PM EDT
Nautical Twilight 6:37 AM EDT 8:59 PM EDT
Astronomical Twilight 6:05 AM EDT 9:30 PM EDT
Moon 8:43 PM EDT (3/27) 7:26 AM EDT (3/27)
Length of Visible Light 13h 19m
Length of Day
12h 26m
Full, 100% of the Moon is Illuminated
Mar 27
Full
Apr 3
Last Quarter
Apr 10
New
Apr 18
First Quarter
Apr 25
Full

Hourly Weather History & Observations

Time (EDT) Temp. Windchill Dew Point Humidity Pressure Visibility Wind Dir Wind Speed Gust Speed Precip Events Conditions
12:53 AM 37.0 °F 31.6 °F 24.1 °F 59% 30.32 in 10.0 mi WNW 6.9 mph - N/A   Overcast
1:53 AM 36.0 °F 28.5 °F 21.9 °F 57% 30.32 in 10.0 mi WNW 10.4 mph - N/A   Overcast
2:53 AM 33.1 °F 28.7 °F 21.9 °F 64% 30.32 in 10.0 mi WNW 4.6 mph - N/A   Clear
3:53 AM 33.1 °F 30.0 °F 23.0 °F 66% 30.32 in 10.0 mi NNW 3.5 mph - N/A   Clear
4:53 AM 30.0 °F 26.5 °F 23.0 °F 75% 30.32 in 10.0 mi WSW 3.5 mph - N/A   Clear
5:53 AM 30.0 °F 26.5 °F 23.0 °F 75% 30.32 in 10.0 mi WSW 3.5 mph - N/A   Clear
6:53 AM 28.9 °F 23.9 °F 21.9 °F 75% 30.34 in 10.0 mi West 4.6 mph - N/A   Clear
7:53 AM 28.9 °F - 21.9 °F 75% 30.35 in 10.0 mi Calm Calm - N/A   Clear
8:53 AM 33.1 °F - 25.0 °F 72% 30.36 in 10.0 mi Calm Calm - N/A   Clear
9:53 AM 36.0 °F 30.3 °F 25.0 °F 64% 30.38 in 10.0 mi WNW 6.9 mph - N/A   Clear
10:53 AM 39.0 °F 32.8 °F 24.1 °F 55% 30.38 in 10.0 mi WNW 9.2 mph - N/A   Clear
11:53 AM 41.0 °F 38.0 °F 21.9 °F 47% 30.38 in 10.0 mi WNW 4.6 mph - N/A   Partly Cloudy
12:53 PM 43.0 °F 40.3 °F 21.9 °F 43% 30.36 in 10.0 mi WNW 4.6 mph - N/A   Mostly Cloudy
1:53 PM 42.1 °F - 21.0 °F 43% 30.36 in 10.0 mi Calm Calm - N/A   Overcast
2:53 PM 42.1 °F 37.1 °F 21.0 °F 43% 30.36 in 10.0 mi West 8.1 mph - N/A   Overcast
3:53 PM 43.0 °F 39.5 °F 21.0 °F 42% 30.35 in 10.0 mi West 5.8 mph - N/A   Overcast
4:53 PM 46.0 °F 40.6 °F 21.9 °F 39% 30.33 in 10.0 mi WNW 11.5 mph 16.1 mph N/A   Partly Cloudy
5:53 PM 45.0 °F 43.5 °F 19.9 °F 37% 30.32 in 10.0 mi Variable 3.5 mph - N/A   Scattered Clouds
6:53 PM 45.0 °F 41.8 °F 19.9 °F 37% 30.32 in 10.0 mi NW 5.8 mph - N/A   Mostly Cloudy
7:53 PM 43.0 °F 38.8 °F 21.0 °F 42% 30.32 in 10.0 mi WNW 6.9 mph - N/A   Mostly Cloudy
8:53 PM 41.0 °F 38.0 °F 21.0 °F 45% 30.33 in 10.0 mi WNW 4.6 mph - N/A   Overcast
9:53 PM 41.0 °F 39.0 °F 21.9 °F 47% 30.34 in 10.0 mi WNW 3.5 mph - N/A   Overcast
10:53 PM 39.0 °F 35.7 °F 23.0 °F 53% 30.34 in 10.0 mi WNW 4.6 mph - N/A   Clear
11:53 PM 37.9 °F - 23.0 °F 55% 30.34 in 10.0 mi Calm Calm - N/A   Clear